Baton Rouge, LA

12:07 PM CDT on April 25, 2017 (GMT -0500)
Baton Rouge Metro-Ryan

Weather History for KBTR - October, 2011

Change the Weather History Date:

Friday, October 28, 2011

  Actual Average Record
Temperature  
Mean Temperature 56 °F 66 °F  
Max Temperature 63 °F 78 °F 89 °F (1963)
Min Temperature 48 °F 54 °F 32 °F (1957)
Degree Days  
Heating Degree Days 9 3  
Month to date heating degree days 47 35  
Since 1 July heating degree days 47 37  
Cooling Degree Days 0 4  
Month to date cooling degree days 104 169  
Year to date cooling degree days 2953 2740  
Growing Degree Days 7 (Base 50)    
Moisture  
Dew Point 54 °F    
Average Humidity 86    
Maximum Humidity 100    
Minimum Humidity 71    
Precipitation  
Precipitation 0.33 in 0.15 in 5.19 in (1896)
Month to date precipitation 0.49 4.25  
Year to date precipitation 39.21 50.50  
Snow  
Snow 0.00 in - - ()
Month to date snowfall 0.0  
Since 1 July snowfall 0.0  
Since 1 September snowfall 0.0  
Snow Depth 0.00 in    
Sea Level Pressure  
Sea Level Pressure 30.02 in    
Wind  
Wind Speed 7 mph (NNW)    
Max Wind Speed 14 mph    
Max Gust Speed 22 mph    
Visibility 9 miles    
Events Rain    
T = Trace of Precipitation, MM = Missing Value Source: NWS Daily Summary

Daily Weather History Graph

Daily Weather History Graph

Search for Another Location

Airport or City:

Trip Planner

Search our weather history database for the weather conditions in past years. The results will help you decide how hot, cold, wet, or windy it might be!

Date:

Astronomy

Oct. 28, 2011 Rise Set
Actual Time 7:15 AM CDT 6:20 PM CDT
Civil Twilight 6:51 AM CDT 6:45 PM CDT
Nautical Twilight 6:22 AM CDT 7:13 PM CDT
Astronomical Twilight 5:54 AM CDT 7:41 PM CDT
Moon 9:20 AM CDT (10/28) 7:56 PM CDT (10/28)
Length of Visible Light 11h 53m
Length of Day
11h 04m
Waxing Crescent, 5% of the Moon is Illuminated
Oct 28
Waxing Crescent
Nov 2
First Quarter
Nov 10
Full
Nov 18
Last Quarter
Nov 25
New

Hourly Weather History & Observations

Time (CDT) Temp. Dew Point Humidity Pressure Visibility Wind Dir Wind Speed Gust Speed Precip Events Conditions
12:53 AM 61.0 °F 60.1 °F 97% 29.90 in 9.0 mi Calm Calm - N/A   Clear
1:53 AM 63.0 °F 62.1 °F 97% 29.91 in 10.0 mi Calm Calm - N/A   Partly Cloudy
2:53 AM 62.1 °F 61.0 °F 96% 29.91 in 10.0 mi Calm Calm - N/A   Overcast
3:53 AM 61.0 °F 60.1 °F 97% 29.91 in 9.0 mi Calm Calm - N/A   Partly Cloudy
4:53 AM 61.0 °F 60.1 °F 97% 29.93 in 9.0 mi NW 10.4 mph 16.1 mph N/A   Overcast
5:05 AM 60.8 °F 60.8 °F 100% 29.93 in 10.0 mi NW 9.2 mph - N/A   Overcast
5:53 AM 61.0 °F 57.9 °F 90% 29.95 in 10.0 mi NNW 6.9 mph - 0.00 in   Overcast
6:50 AM 57.2 °F 57.2 °F 100% 29.96 in 2.0 mi Calm Calm - 0.14 in Rain Heavy Rain
6:53 AM 57.9 °F 57.9 °F 100% 29.96 in 2.0 mi NNE 4.6 mph - 0.17 in Rain Heavy Rain
7:06 AM 57.2 °F 57.2 °F 100% 29.96 in 3.0 mi East 3.5 mph - 0.11 in Rain Heavy Rain
7:23 AM 59.0 °F 59.0 °F 100% 29.97 in 10.0 mi Calm Calm - 0.14 in Rain Light Rain
7:53 AM 59.0 °F 57.9 °F 96% 29.98 in 7.0 mi NW 6.9 mph - 0.15 in Rain Light Rain
8:53 AM 57.9 °F 57.0 °F 97% 30.00 in 10.0 mi NNW 6.9 mph - 0.01 in   Overcast
9:53 AM 57.0 °F 55.9 °F 96% 30.02 in 10.0 mi NNW 6.9 mph - N/A   Overcast
10:53 AM 57.0 °F 55.9 °F 96% 30.03 in 10.0 mi NNW 9.2 mph - N/A   Overcast
11:53 AM 55.9 °F 55.0 °F 97% 30.02 in 10.0 mi NNW 9.2 mph - N/A   Overcast
12:53 PM 57.9 °F 54.0 °F 87% 30.02 in 10.0 mi NW 8.1 mph - N/A   Overcast
1:53 PM 57.0 °F 54.0 °F 89% 30.01 in 10.0 mi NW 9.2 mph - N/A   Overcast
2:53 PM 57.0 °F 52.0 °F 83% 30.01 in 10.0 mi NW 10.4 mph 17.3 mph N/A   Overcast
3:53 PM 55.9 °F 50.0 °F 80% 30.02 in 10.0 mi Variable 6.9 mph - N/A   Overcast
4:53 PM 55.0 °F 48.9 °F 80% 30.05 in 10.0 mi NNW 10.4 mph 17.3 mph N/A   Overcast
5:53 PM 54.0 °F 48.0 °F 80% 30.08 in 10.0 mi NNW 5.8 mph - N/A   Overcast
6:53 PM 54.0 °F 48.0 °F 80% 30.11 in 10.0 mi North 6.9 mph - N/A   Overcast
7:23 PM 53.6 °F 46.4 °F 77% 30.12 in 10.0 mi Variable 4.6 mph - N/A   Overcast
7:53 PM 54.0 °F 46.9 °F 77% 30.13 in 10.0 mi Variable 6.9 mph - N/A   Overcast
8:53 PM 54.0 °F 46.0 °F 75% 30.14 in 10.0 mi NNW 6.9 mph 18.4 mph N/A   Overcast
9:53 PM 54.0 °F 44.1 °F 69% 30.16 in 10.0 mi Variable 4.6 mph - N/A   Overcast
10:53 PM 51.1 °F 43.0 °F 74% 30.17 in 10.0 mi Variable 3.5 mph - N/A   Clear
11:53 PM 48.9 °F 43.0 °F 80% 30.16 in 10.0 mi North 4.6 mph - N/A   Clear